When you browse on this site, cookies collect data to enhance your experience and personalize the content and advertising you see.
Visit our Privacy Policy to learn more. By continuing to use the site, you agree to this use of cookies and data.

Hourly Weather Sasaima

Today, 7 July, Tuesday

Time Temperature Precipitation Wind Pressure Humidity
00:00 +14°C° 0.4 mm 1 mps 601 mmHg 90%
01:00 +14°C° 0.4 mm 1 mps 600 mmHg 90%
02:00 +14°C° 0.2 mm 1 mps 600 mmHg 90%
03:00 +13°C° 0.2 mm 1 mps 600 mmHg 90%
04:00 +13°C° 0.2 mm 1 mps 599 mmHg 90%
05:00 +14°C° 0.1 mm 1 mps 600 mmHg 90%
06:00 +14°C° 0.1 mm 1 mps 601 mmHg 89%
07:00 +14°C° 0.1 mm 0 mps 601 mmHg 88%
08:00 +16°C° 0.4 mm 1 mps 602 mmHg 85%
09:00 +18°C° 0.4 mm 1 mps 602 mmHg 83%
10:00 +19°C° 0.4 mm 1 mps 603 mmHg 80%
11:00 +20°C° 0.5 mm 1 mps 602 mmHg 79%
12:00 +20°C° 0.5 mm 1 mps 602 mmHg 78%
13:00 +20°C° 0.5 mm 1 mps 602 mmHg 76%
14:00 +21°C° 0.4 mm 1 mps 601 mmHg 73%
15:00 +21°C° 0.4 mm 1 mps 601 mmHg 69%
16:00 +22°C° 0.4 mm 1 mps 601 mmHg 66%
17:00 +20°C° 0.3 mm 1 mps 600 mmHg 73%
18:00 +18°C° 0.3 mm 1 mps 600 mmHg 79%
19:00 +15°C° 0.3 mm 1 mps 600 mmHg 86%
20:00 +15°C° 0.1 mm 1 mps 600 mmHg 86%
21:00 +14°C° 0.1 mm 1 mps 600 mmHg 85%
22:00 +14°C° 0.1 mm 1 mps 600 mmHg 84%
23:00 +14°C° 0.2 mm 1 mps 600 mmHg 85%

Tomorrow, 8 July, Wednesday

Time Temperature Precipitation Wind Pressure Humidity
00:00 +13°C° 0.2 mm 1 mps 600 mmHg 86%
01:00 +13°C° 0.2 mm 1 mps 600 mmHg 86%
02:00 +13°C° 0.2 mm 1 mps 600 mmHg 87%
03:00 +13°C° 0.2 mm 1 mps 599 mmHg 87%
04:00 +13°C° 0.2 mm 1 mps 599 mmHg 88%
05:00 +13°C° 0.3 mm 1 mps 599 mmHg 86%
06:00 +14°C° 0.3 mm 1 mps 600 mmHg 85%
07:00 +14°C° 0.3 mm 1 mps 600 mmHg 84%
08:00 +16°C° 0.3 mm 1 mps 601 mmHg 79%
09:00 +19°C° 0.3 mm 1 mps 602 mmHg 74%
10:00 +21°C° 0.3 mm 1 mps 603 mmHg 69%
11:00 +22°C° 0.5 mm 1 mps 603 mmHg 68%
12:00 +22°C° 0.5 mm 1 mps 602 mmHg 67%
13:00 +23°C° 0.5 mm 1 mps 602 mmHg 65%
14:00 +22°C° 0.7 mm 1 mps 601 mmHg 66%
15:00 +22°C° 0.7 mm 1 mps 601 mmHg 67%
16:00 +22°C° 0.7 mm 1 mps 600 mmHg 68%
17:00 +20°C° 0.6 mm 1 mps 600 mmHg 73%
18:00 +19°C° 0.6 mm 1 mps 600 mmHg 78%
19:00 +16°C° 0.6 mm 1 mps 599 mmHg 83%
20:00 +15°C° 0.3 mm 1 mps 600 mmHg 82%
21:00 +15°C° 0.3 mm 1 mps 600 mmHg 82%
22:00 +15°C° 0.3 mm 2 mps 600 mmHg 82%
23:00 +14°C° 0.7 mm 2 mps 600 mmHg 84%

Day after tomorrow, 9 July, Thursday

Time Temperature Precipitation Wind Pressure Humidity
00:00 +14°C° 0.7 mm 2 mps 600 mmHg 86%
01:00 +13°C° 0.7 mm 2 mps 599 mmHg 88%
02:00 +13°C° 0.5 mm 2 mps 599 mmHg 88%
03:00 +13°C° 0.5 mm 2 mps 599 mmHg 87%
04:00 +12°C° 0.5 mm 2 mps 599 mmHg 86%
05:00 +13°C° 0.2 mm 1 mps 599 mmHg 86%
06:00 +13°C° 0.2 mm 1 mps 600 mmHg 85%
07:00 +14°C° 0.2 mm 1 mps 600 mmHg 84%
08:00 +15°C° 0.2 mm 1 mps 601 mmHg 80%
09:00 +18°C° 0.2 mm 1 mps 602 mmHg 76%
10:00 +20°C° 0.2 mm 1 mps 603 mmHg 73%
11:00 +20°C° 0.5 mm 1 mps 602 mmHg 73%
12:00 +21°C° 0.5 mm 1 mps 602 mmHg 73%
13:00 +22°C° 0.5 mm 1 mps 601 mmHg 73%
14:00 +21°C° 0.5 mm 1 mps 601 mmHg 73%
15:00 +21°C° 0.5 mm 1 mps 600 mmHg 73%
16:00 +21°C° 0.5 mm 1 mps 600 mmHg 74%
17:00 +20°C° 0.7 mm 1 mps 600 mmHg 80%
18:00 +18°C° 0.7 mm 1 mps 600 mmHg 86%
19:00 +15°C° 0.7 mm 0 mps 599 mmHg 92%
20:00 +15°C° 0.8 mm 1 mps 600 mmHg 91%
21:00 +15°C° 0.8 mm 1 mps 600 mmHg 89%
22:00 +14°C° 0.8 mm 1 mps 601 mmHg 88%
23:00 +14°C° 0.3 mm 1 mps 600 mmHg 88%

10 July, Friday

Time Temperature Precipitation Wind Pressure Humidity
00:00 +13°C° 0.3 mm 2 mps 600 mmHg 89%
01:00 +13°C° 0.3 mm 2 mps 600 mmHg 89%
02:00 +13°C° 0.2 mm 2 mps 600 mmHg 88%
03:00 +13°C° 0.2 mm 2 mps 599 mmHg 88%
04:00 +12°C° 0.2 mm 2 mps 599 mmHg 87%
05:00 +13°C° 0.1 mm 1 mps 600 mmHg 86%
06:00 +14°C° 0.1 mm 1 mps 600 mmHg 84%
07:00 +14°C° 0.1 mm 1 mps 601 mmHg 82%
08:00 +16°C° 0.1 mm 1 mps 602 mmHg 78%
09:00 +19°C° 0.1 mm 1 mps 603 mmHg 73%
10:00 +21°C° 0.1 mm 1 mps 603 mmHg 69%
11:00 +21°C° 0.6 mm 1 mps 603 mmHg 71%
12:00 +21°C° 0.6 mm 1 mps 602 mmHg 72%
13:00 +20°C° 0.6 mm 2 mps 602 mmHg 74%
14:00 +20°C° 0.7 mm 2 mps 601 mmHg 74%
15:00 +21°C° 0.7 mm 1 mps 601 mmHg 74%
16:00 +21°C° 0.7 mm 1 mps 600 mmHg 74%
17:00 +19°C° 0.8 mm 1 mps 600 mmHg 79%
18:00 +18°C° 0.8 mm 1 mps 600 mmHg 84%
19:00 +16°C° 0.8 mm 1 mps 600 mmHg 89%
20:00 +15°C° 0.1 mm 1 mps 600 mmHg 89%
21:00 +15°C° 0.1 mm 1 mps 601 mmHg 89%
22:00 +14°C° 0.1 mm 1 mps 601 mmHg 89%
23:00 +14°C° 0.1 mm 1 mps 601 mmHg 89%

11 July, Saturday

Time Temperature Precipitation Wind Pressure Humidity
00:00 +14°C° 0.1 mm 1 mps 601 mmHg 89%
01:00 +14°C° 0.1 mm 1 mps 600 mmHg 88%
02:00 +14°C° 0 mm 1 mps 600 mmHg 89%
03:00 +14°C° 0 mm 1 mps 600 mmHg 90%
04:00 +14°C° 0 mm 1 mps 599 mmHg 91%
05:00 +14°C° 0 mm 1 mps 600 mmHg 89%
06:00 +14°C° 0 mm 1 mps 600 mmHg 88%
07:00 +15°C° 0 mm 1 mps 601 mmHg 86%
08:00 +16°C° 0 mm 1 mps 601 mmHg 78%
09:00 +19°C° 0 mm 1 mps 602 mmHg 70%
10:00 +21°C° 0 mm 1 mps 603 mmHg 63%
11:00 +22°C° 0.3 mm 1 mps 603 mmHg 61%
12:00 +21°C° 0.3 mm 2 mps 602 mmHg 59%
13:00 +23°C° 0.3 mm 2 mps 602 mmHg 58%
14:00 +23°C° 0.4 mm 2 mps 601 mmHg 60%
15:00 +22°C° 0.4 mm 1 mps 601 mmHg 62%
16:00 +22°C° 0.4 mm 1 mps 600 mmHg 65%
17:00 +20°C° 0.5 mm 1 mps 600 mmHg 70%
18:00 +19°C° 0.5 mm 1 mps 600 mmHg 76%
19:00 +18°C° 0.5 mm 1 mps 600 mmHg 81%
20:00 +16°C° 0.5 mm 1 mps 600 mmHg 84%
21:00 +15°C° 0.5 mm 1 mps 601 mmHg 86%
22:00 +15°C° 0.5 mm 1 mps 601 mmHg 88%
23:00 +14°C° 0.5 mm 1 mps 601 mmHg 89%

12 July, Sunday

Time Temperature Precipitation Wind Pressure Humidity
00:00 +14°C° 0.5 mm 1 mps 600 mmHg 91%
01:00 +14°C° 0.5 mm 1 mps 600 mmHg 92%
02:00 +14°C° 0.4 mm 1 mps 600 mmHg 92%
03:00 +13°C° 0.4 mm 1 mps 599 mmHg 93%
04:00 +13°C° 0.4 mm 1 mps 599 mmHg 93%
05:00 +14°C° 0 mm 1 mps 600 mmHg 92%
06:00 +14°C° 0 mm 1 mps 600 mmHg 91%
07:00 +14°C° 0 mm 0 mps 601 mmHg 90%
08:00 +16°C° 0.3 mm 1 mps 601 mmHg 85%
09:00 +19°C° 0.3 mm 1 mps 602 mmHg 80%
10:00 +20°C° 0.3 mm 1 mps 603 mmHg 76%
11:00 +20°C° 0.6 mm 1 mps 603 mmHg 74%
12:00 +20°C° 0.6 mm 2 mps 602 mmHg 72%
13:00 +20°C° 0.6 mm 2 mps 602 mmHg 70%
14:00 +20°C° 0.8 mm 2 mps 601 mmHg 72%
15:00 +21°C° 0.8 mm 1 mps 601 mmHg 75%
16:00 +20°C° 0.8 mm 1 mps 600 mmHg 77%
17:00 +19°C° 0.7 mm 1 mps 600 mmHg 82%
18:00 +18°C° 0.7 mm 1 mps 600 mmHg 87%
19:00 +15°C° 0.7 mm 1 mps 600 mmHg 91%
20:00 +15°C° 0.2 mm 1 mps 600 mmHg 90%
21:00 +15°C° 0.2 mm 1 mps 601 mmHg 90%
22:00 +15°C° 0.2 mm 1 mps 601 mmHg 89%
23:00 +14°C° 0 mm 1 mps 601 mmHg 89%
Show more